Location: Anne Acres
(38.7004°N, 75.0827°W)
Time: 22:01:32
(UTC+00:00)

Explorer 11/Cluster Stage 4 - Pass Details

Date: 14 November 2024
Orbit: 464 x 1202 km, 28.8° (Epoch: 03 December)

Event Time Altitude Azimuth Distance (km) Brightness Sun altitude
Exits shadow 09:28:36 20° 175° (S) 1,401 7.9 -26.0°
Maximum altitude 09:28:37 20° 175° (S) 1,400 7.9 -26.0°
Drops below altitude 10° 09:31:45 10° 127° (SE) 1,824 9.2 -25.4°
Sets 09:34:16 0° 109° (ESE) 2,626 10.5 -24.9°
